Location: Kershaw
(34.5481°N, 80.5823°W)
Time: 21:14:30
(UTC+00:00)

Vanguard 2 Rocket - Pass Details

Date: 06 October 2022
Orbit: 555 x 3321 km, 32.9° (Epoch: 28 November)

Event Time Altitude Azimuth Distance (km) Brightness Sun altitude
Rises 00:37:03 0° 215° (SW) 7,257 11.9 -20.6°
Reaches altitude 10° 00:42:31 10° 209° (SSW) 6,270 11.4 -21.7°
Maximum altitude 00:59:54 39° 149° (SSE) 3,855 9.7 -25.2°
Enters shadow 01:04:28 34° 120° (ESE) 3,816 9.5 -26.2°
